This is the latest recevied weather packets stored in our database for station/object CE4JVU-10. If no packets are shown the sender has not sent any weather packets the latest 10 day(s).
| Time | Temp. | Humidity | Pressure | Rain* | Wind** | Luminosity | Snow |
|---|---|---|---|---|---|---|---|
| 1787963036 | 18.89° C | 56% | 982.7 hPa | - | - | - | - |
| 1787962136 | 19.44° C | 56% | 982.8 hPa | - | - | - | - |
| 1787961236 | 18.89° C | 53% | 982.8 hPa | - | - | - | - |
| 1787960336 | 18.89° C | 55% | 982.7 hPa | - | - | - | - |
| 1787959436 | 19.44° C | 52% | 982.4 hPa | - | - | - | - |
| 1787958536 | 20.56° C | 51% | 982.4 hPa | - | - | - | - |
| 1787957635 | 21.11° C | 51% | 982.4 hPa | - | - | - | - |
| 1787956735 | 20.56° C | 52% | 982.2 hPa | - | - | - | - |
| 1787955835 | 21.11° C | 49% | 982 hPa | - | - | - | - |
| 1787954935 | 20.56° C | 46% | 981.7 hPa | - | - | - | - |
| 1787954035 | 21.67° C | 44% | 981.7 hPa | - | - | - | - |
| 1787953135 | 21.11° C | 43% | 981.5 hPa | - | - | - | - |
| 1787952235 | 21.67° C | 42% | 981.3 hPa | - | - | - | - |
| 1787951335 | 22.22° C | 41% | 981.2 hPa | - | - | - | - |
| 1787950435 | 22.78° C | 41% | 981.1 hPa | - | - | - | - |
| 1787949535 | 22.78° C | 42% | 980.9 hPa | - | - | - | - |
| 1787948634 | 23.33° C | 49% | 980.9 hPa | - | - | - | - |
| 1787947734 | 21.67° C | 52% | 980.8 hPa | - | - | - | - |
| 1787946834 | 21.67° C | 52% | 980.8 hPa | - | - | - | - |
| 1787945934 | 21.67° C | 52% | 980.8 hPa | - | - | - | - |
| 1787945034 | 21.11° C | 51% | 980.8 hPa | - | - | - | - |
| 1787944134 | 21.67° C | 48% | 980.7 hPa | - | - | - | - |
| 1787943236 | 21.11° C | 48% | 980.8 hPa | - | - | - | - |
| 1787942336 | 20° C | 43% | 980.8 hPa | - | - | - | - |
| 1787941436 | 19.44° C | 48% | 980.8 hPa | - | - | - | - |
* Rain since midnight (hover to see other rain measurements)
** Current wind speed in m/s (hover to see current wind gust speed)